Cape Cod CGAS, MA

1:53 AM EDT on April 25, 2017 (GMT -0400)
Cape Cod Coast Guard Air Station

Weather History for KFMH - March, 2013

Change the Weather History Date:

Thursday, March 14, 2013

  Actual Average Record
Temperature  
Mean Temperature 32 °F -  
Max Temperature 39 °F 40 °F 62 °F (2002)
Min Temperature 24 °F 25 °F 14 °F (2014)
Degree Days  
Heating Degree Days 34    
Moisture  
Dew Point 16 °F    
Average Humidity 55    
Maximum Humidity 80    
Minimum Humidity 31    
Precipitation  
Precipitation 0.00 in - - ()
Sea Level Pressure  
Sea Level Pressure 29.76 in    
Wind  
Wind Speed 9 mph (WNW)    
Max Wind Speed 22 mph    
Max Gust Speed 34 mph    
Visibility 10 miles    
Events Snow    
Averages and records for this station are not official NWS values.
T = Trace of Precipitation, MM = Missing Value Source: NWS Daily Summary

Daily Weather History Graph

Daily Weather History Graph

Search for Another Location

Airport or City:

Trip Planner

Search our weather history database for the weather conditions in past years. The results will help you decide how hot, cold, wet, or windy it might be!

Date:

Astronomy

Mar. 14, 2013 Rise Set
Actual Time 6:55 AM EDT 6:47 PM EDT
Civil Twilight 6:27 AM EDT 7:15 PM EDT
Nautical Twilight 5:55 AM EDT 7:47 PM EDT
Astronomical Twilight 5:22 AM EDT 8:20 PM EDT
Moon 8:04 AM EDT (3/14) 10:04 PM EDT (3/14)
Length of Visible Light 12h 47m
Length of Day
11h 52m
Waxing Crescent, 9% of the Moon is Illuminated
Mar 14
Waxing Crescent
Mar 19
First Quarter
Mar 27
Full
Apr 3
Last Quarter
Apr 10
New

Hourly Weather History & Observations

Time (EDT) Temp. Windchill Dew Point Humidity Pressure Visibility Wind Dir Wind Speed Gust Speed Precip Events Conditions
12:15 AM 32.0 °F - 23.0 °F 69% 29.77 in 10.0 mi Calm Calm - N/A   Clear
12:35 AM 30.2 °F - 23.0 °F 75% 29.77 in 10.0 mi Calm Calm - N/A   Clear
12:55 AM 28.4 °F 24.6 °F 23.0 °F 80% 29.77 in 10.0 mi WNW 3.5 mph - N/A   Clear
1:15 AM 28.4 °F - 23.0 °F 80% 29.77 in 10.0 mi Calm Calm - N/A   Clear
1:35 AM 28.4 °F - 23.0 °F 80% 29.77 in 10.0 mi Calm Calm - N/A   Clear
1:55 AM 28.4 °F 24.6 °F 23.0 °F 80% 29.77 in 10.0 mi WNW 3.5 mph - N/A   Scattered Clouds
2:15 AM 30.2 °F 26.7 °F 23.0 °F 75% 29.77 in 10.0 mi WNW 3.5 mph - N/A   Scattered Clouds
2:35 AM 28.4 °F 24.6 °F 23.0 °F 80% 29.77 in 10.0 mi WNW 3.5 mph - N/A   Mostly Cloudy
2:55 AM 30.2 °F 24.3 °F 23.0 °F 75% 29.77 in 10.0 mi WNW 5.8 mph - N/A   Overcast
3:15 AM 30.2 °F 26.7 °F 23.0 °F 75% 29.77 in 10.0 mi West 3.5 mph - N/A   Overcast
3:35 AM 30.2 °F 25.4 °F 23.0 °F 75% 29.77 in 10.0 mi West 4.6 mph - N/A   Overcast
3:55 AM 32.0 °F 25.6 °F 24.8 °F 75% 29.77 in 10.0 mi WNW 6.9 mph - N/A   Overcast
4:15 AM 32.0 °F 25.6 °F 24.8 °F 75% 29.76 in 10.0 mi WNW 6.9 mph - N/A   Overcast
4:35 AM 32.0 °F 26.4 °F 24.8 °F 75% 29.76 in 10.0 mi NW 5.8 mph - N/A   Overcast
4:55 AM 32.0 °F 25.6 °F 26.6 °F 80% 29.76 in 10.0 mi WNW 6.9 mph - N/A   Overcast
5:15 AM 32.0 °F 25.6 °F 24.8 °F 75% 29.77 in 10.0 mi WNW 6.9 mph - N/A   Mostly Cloudy
5:35 AM 32.0 °F 26.4 °F 23.0 °F 69% 29.77 in 10.0 mi WNW 5.8 mph - N/A   Mostly Cloudy
5:55 AM 32.0 °F 26.4 °F 23.0 °F 69% 29.77 in 10.0 mi WNW 5.8 mph - N/A   Partly Cloudy
6:15 AM 28.4 °F 20.4 °F 23.0 °F 80% 29.77 in 10.0 mi WNW 8.1 mph - N/A   Clear
6:35 AM 32.0 °F 24.8 °F 23.0 °F 69% 29.78 in 10.0 mi WNW 8.1 mph - N/A   Clear
6:55 AM 32.0 °F 23.0 °F 23.0 °F 69% 29.78 in 10.0 mi West 11.5 mph - N/A   Partly Cloudy
7:15 AM 32.0 °F 23.6 °F 23.0 °F 69% 29.78 in 10.0 mi WNW 10.4 mph - N/A   Mostly Cloudy
7:35 AM 32.0 °F 23.0 °F 23.0 °F 69% 29.78 in 10.0 mi WNW 11.5 mph - N/A   Overcast
7:55 AM 33.8 °F 23.9 °F 23.0 °F 65% 29.78 in 10.0 mi WNW 15.0 mph 18.4 mph N/A   Overcast
8:15 AM 32.0 °F 24.2 °F 21.2 °F 64% 29.79 in 10.0 mi WNW 9.2 mph - N/A   Overcast
8:35 AM 33.8 °F 25.3 °F 23.0 °F 65% 29.79 in 10.0 mi WNW 11.5 mph 17.3 mph N/A   Overcast
8:55 AM 33.8 °F 25.3 °F 23.0 °F 65% 29.79 in 10.0 mi WNW 11.5 mph - N/A   Overcast
9:35 AM 35.6 °F 27.1 °F 21.2 °F 56% 29.79 in 10.0 mi West 12.7 mph - N/A   Mostly Cloudy
9:55 AM 35.6 °F 26.6 °F 21.2 °F 56% 29.79 in 10.0 mi WNW 13.8 mph - N/A Snow Light Snow
10:15 AM 33.8 °F 23.9 °F 19.4 °F 56% 29.78 in 10.0 mi West 15.0 mph 23.0 mph N/A   Mostly Cloudy
10:35 AM 35.6 °F 27.1 °F 17.6 °F 48% 29.77 in 10.0 mi West 12.7 mph 18.4 mph N/A   Scattered Clouds
10:55 AM 35.6 °F 27.5 °F 17.6 °F 48% 29.77 in 10.0 mi West 11.5 mph 17.3 mph N/A   Overcast
11:15 AM 35.6 °F 28.6 °F 17.6 °F 48% 29.77 in 10.0 mi WNW 9.2 mph - N/A   Overcast
11:35 AM 35.6 °F 28.0 °F 17.6 °F 48% 29.76 in 10.0 mi West 10.4 mph 18.4 mph N/A   Mostly Cloudy
11:55 AM 39.2 °F 31.2 °F 17.6 °F 42% 29.75 in 10.0 mi NW 13.8 mph - N/A   Overcast
12:15 PM 35.6 °F 29.2 °F 15.8 °F 44% 29.74 in 10.0 mi WNW 8.1 mph 19.6 mph N/A   Overcast
12:35 PM 35.6 °F 28.0 °F 17.6 °F 48% 29.73 in 10.0 mi NW 10.4 mph - N/A   Overcast
12:55 PM 33.8 °F 23.9 °F 17.6 °F 52% 29.73 in 10.0 mi WNW 15.0 mph 18.4 mph N/A   Mostly Cloudy
1:15 PM 33.8 °F 25.8 °F 17.6 °F 52% 29.72 in 9.0 mi NW 10.4 mph 17.3 mph N/A Snow Light Snow
1:35 PM 35.6 °F 27.1 °F 15.8 °F 44% 29.72 in 10.0 mi NW 12.7 mph - N/A   Overcast
1:55 PM 37.4 °F 28.2 °F 15.8 °F 41% 29.71 in 10.0 mi WNW 16.1 mph 21.9 mph N/A   Mostly Cloudy
2:15 PM 33.8 °F 23.2 °F 15.8 °F 48% 29.71 in 10.0 mi West 17.3 mph 26.5 mph N/A   Mostly Cloudy
2:35 PM 35.6 °F 28.6 °F 15.8 °F 44% 29.70 in 8.0 mi West 9.2 mph 21.9 mph N/A Snow Light Snow
2:55 PM 35.6 °F 25.5 °F 12.2 °F 38% 29.70 in 10.0 mi WNW 17.3 mph 21.9 mph N/A   Overcast
3:15 PM 35.6 °F 25.2 °F 10.4 °F 35% 29.71 in 10.0 mi NW 18.4 mph 24.2 mph N/A   Overcast
3:35 PM 33.8 °F 24.3 °F 12.2 °F 41% 29.71 in 10.0 mi WNW 13.8 mph 23.0 mph N/A   Overcast
3:55 PM 33.8 °F 23.5 °F 12.2 °F 41% 29.71 in 10.0 mi West 16.1 mph 26.5 mph N/A   Overcast
4:15 PM 35.6 °F 25.5 °F 10.4 °F 35% 29.71 in 10.0 mi West 17.3 mph 25.3 mph N/A   Overcast
4:35 PM 32.0 °F 20.8 °F 8.6 °F 38% 29.72 in 10.0 mi WNW 17.3 mph - N/A   Mostly Cloudy
4:55 PM 32.0 °F 22.1 °F 8.6 °F 38% 29.72 in 10.0 mi NW 13.8 mph 23.0 mph N/A   Overcast
5:15 PM 32.0 °F 21.2 °F 8.6 °F 38% 29.72 in 10.0 mi WNW 16.1 mph 20.7 mph N/A   Overcast
5:35 PM 32.0 °F 20.5 °F 8.6 °F 38% 29.73 in 10.0 mi West 18.4 mph 23.0 mph N/A   Overcast
5:55 PM 32.0 °F 20.8 °F 8.6 °F 38% 29.73 in 10.0 mi WNW 17.3 mph 25.3 mph N/A   Overcast
6:15 PM 32.0 °F 20.1 °F 8.6 °F 38% 29.74 in 10.0 mi WNW 19.6 mph 25.3 mph N/A   Overcast
6:35 PM 30.2 °F 18.1 °F 10.4 °F 44% 29.75 in 10.0 mi WNW 18.4 mph 24.2 mph N/A   Overcast
6:55 PM 28.4 °F 15.8 °F 8.6 °F 43% 29.76 in 10.0 mi WNW 18.4 mph 27.6 mph N/A   Overcast
7:15 PM 28.4 °F 15.4 °F 8.6 °F 43% 29.77 in 10.0 mi WNW 19.6 mph 26.5 mph N/A   Overcast
7:35 PM 28.4 °F 15.4 °F 8.6 °F 43% 29.78 in 10.0 mi WNW 19.6 mph 24.2 mph N/A   Overcast
7:55 PM 26.6 °F 13.8 °F 8.6 °F 47% 29.79 in 10.0 mi NW 17.3 mph 21.9 mph N/A   Overcast
8:15 PM 26.6 °F 14.3 °F 8.6 °F 47% 29.79 in 10.0 mi NW 16.1 mph 26.5 mph N/A   Mostly Cloudy
8:35 PM 26.6 °F 13.8 °F 6.8 °F 43% 29.80 in 10.0 mi WNW 17.3 mph 26.5 mph N/A   Scattered Clouds
8:55 PM 26.6 °F 12.7 °F 6.8 °F 43% 29.80 in 10.0 mi NW 20.7 mph 27.6 mph N/A   Mostly Cloudy
9:15 PM 26.6 °F 13.1 °F 6.8 °F 43% 29.80 in 10.0 mi WNW 19.6 mph 27.6 mph N/A   Overcast
9:35 PM 26.6 °F 14.7 °F 6.8 °F 43% 29.80 in 10.0 mi NW 15.0 mph 26.5 mph N/A   Overcast
9:55 PM 26.6 °F 14.7 °F 6.8 °F 43% 29.81 in 10.0 mi NW 15.0 mph 28.8 mph N/A   Overcast
10:15 PM 26.6 °F 13.4 °F 5.0 °F 40% 29.81 in 10.0 mi NW 18.4 mph 26.5 mph N/A   Overcast
10:35 PM 24.8 °F 11.9 °F 6.8 °F 46% 29.81 in 10.0 mi NW 16.1 mph 26.5 mph N/A   Overcast
10:55 PM 24.8 °F 10.0 °F 3.2 °F 40% 29.82 in 10.0 mi NW 21.9 mph 34.5 mph N/A   Scattered Clouds
11:15 PM 24.8 °F 12.4 °F 3.2 °F 40% 29.82 in 10.0 mi NW 15.0 mph 27.6 mph N/A   Scattered Clouds
11:35 PM 24.8 °F 12.4 °F 3.2 °F 40% 29.82 in 10.0 mi NW 15.0 mph 27.6 mph N/A   Partly Cloudy
11:55 PM 24.8 °F 11.9 °F 3.2 °F 40% 29.82 in 10.0 mi NW 16.1 mph 27.6 mph N/A   Clear